Regional Weather Roundup
Issued by NWS

Home | Current Version | Previous Version | Text Only | Print | Product List | Glossary Off
Versions: 1 2 3 4 5 6 7 8 9 10 11 12 13 14 15 16 17 18 19 20 21 22 23 24 25 26 27 28 29 30 31 32 33 34 35 36 37 38 39 40 41 42 43 44 45 46 47 48 49 50

000
ASUS43 KOAX 191202
RWRNE

WEATHER ROUNDUP FOR NEBRASKA
NATIONAL WEATHER SERVICE OMAHA NE
700 AM CDT SUN APR 19 2015

NOTES: SATELLITE DATA IS BEING USED TO AUGMENT CLOUD COVER ABOVE
       12000 FEET.
       "FAIR" INDICATES FEW OR NO CLOUDS BELOW 12,000 FEET WITH NO
       SIGNIFICANT WEATHER AND/OR OBSTRUCTIONS TO VISIBILITY.

  * THESE STATIONS DO NOT REPORT WEATHER SUCH AS RAIN...SNOW OR FOG.

NEZ001>004-019>022-054>056-191300-
NEBRASKA PANHANDLE

CITY           SKY/WX    TMP DP  RH WIND       PRES   REMARKS
SCOTTSBLUFF    PTCLDY    37  32  82 NW20      30.11R WCI  27
6HR MIN TEMP:  37; 6HR MAX TEMP:  47;

ALLIANCE       PTCLDY    37  32  82 NW16      30.05R WCI  28
6HR MIN TEMP:  37; 6HR MAX TEMP:  45; 6HR PCP: TRACE;

CHADRON        CLEAR     35  31  85 NW9       30.09R WCI  28
6HR MIN TEMP:  35; 6HR MAX TEMP:  46; 6HR PCP:  0.01;

SIDNEY         CLOUDY    39  33  79 N23G30    30.05R WCI  28
6HR MIN TEMP:  39; 6HR MAX TEMP:  45; 6HR PCP: TRACE;

$$

NEZ057>060-069>072-079>082-191300-
SOUTHWEST NEBRASKA

CITY           SKY/WX    TMP DP  RH WIND       PRES   REMARKS
NORTH PLATTE   LGT RAIN  46  43  89 N30G39    29.89R
6HR MIN TEMP:  46; 6HR MAX TEMP:  49; 6HR PCP:  0.17;

IMPERIAL       LGT RAIN  45  41  86 N26G37    29.95R
6HR MIN TEMP:  45; 6HR MAX TEMP:  48; 6HR PCP:  0.24;

MCCOOK         LGT RAIN  49  45  86 N22       29.87R
6HR MIN TEMP:  49; 6HR MAX TEMP:  53; 6HR PCP:  0.12;

$$

NEZ005>010-023>029-035>040-094-191300-
NORTH CENTRAL NEBRASKA

CITY           SKY/WX    TMP DP  RH WIND       PRES   REMARKS
VALENTINE      CLOUDY    45  39  79 NW22G33   29.94R
6HR MIN TEMP:  45; 6HR MAX TEMP:  49; 6HR PCP:  0.01;

AINSWORTH      CLOUDY    45  40  83 N25G35    29.93R
BROKEN BOW     LGT RAIN  48  45  89 N29G36    29.84R
6HR MIN TEMP:  48; 6HR MAX TEMP:  53; 6HR PCP:  0.08;

ORD            LGT RAIN  48  44  86 N20G26    29.83R
6HR MIN TEMP:  48; 6HR MAX TEMP:  53; 6HR PCP: TRACE;

$$

NEZ041-046>049-061>064-073>077-083>087-191300-
SOUTH CENTRAL NEBRASKA

CITY           SKY/WX    TMP DP  RH WIND       PRES   REMARKS
GRAND ISLAND   RAIN      50  48  93 N18       29.81R FOG
6HR MIN TEMP:  50; 6HR MAX TEMP:  54; 6HR PCP:  0.07;

HASTINGS       CLOUDY    51  49  92 N12       29.79R
6HR MIN TEMP:  51; 6HR MAX TEMP:  53; 6HR PCP:  0.01;

KEARNEY *      CLOUDY    48  45  87 N22G28    29.81R
YORK           LGT RAIN  52  50  93 CALM      29.79R
$$

NEZ011>018-030>034-042>045-191300-
NORTHEAST NEBRASKA

CITY           SKY/WX    TMP DP  RH WIND       PRES   REMARKS
COLUMBUS *     CLOUDY    52  43  71 N16G25    29.77R
TEKAMAH        CLOUDY    54  54 100 CALM      29.73S FOG
6HR MIN TEMP:  54; 6HR MAX TEMP:  56;

$$

NEZ050>053-065>068-078-088>093-191300-
SOUTHEAST NEBRASKA

CITY           SKY/WX    TMP DP  RH WIND       PRES   REMARKS
LINCOLN        LGT RAIN  54  51  90 W7        29.76R
6HR MIN TEMP:  54; 6HR MAX TEMP:  58; 6HR PCP:  0.06;

OMAHA EPPLEY   FOG       56  56 100 E5        29.72F VSB 1/8
6HR MIN TEMP:  56; 6HR MAX TEMP:  58;

FALLS CITY     LGT RAIN  54  51  90 W9        29.72S
6HR MIN TEMP:  51; 6HR MAX TEMP:  57; 6HR PCP:  0.02;

$$

NEZ044-045-051>053-067-191300-
OMAHA AREA

CITY           SKY/WX    TMP DP  RH WIND       PRES   REMARKS
OMAHA EPPLEY   FOG       56  56 100 E5        29.72F VSB 1/8
6HR MIN TEMP:  56; 6HR MAX TEMP:  58;

$$


USA.gov is the U.S. government's official web portal to all federal, state and local government web resources and services.